Location: ?????????
(38.4921°N, 22.9787°E)
Time: 04:18:31
(UTC+00:00)

SL-8 R/B - Pass Details

Date: 08 December 2025
Orbit: 647 x 656 km, 48.4° (Epoch: 21 January)

Event Time Altitude Azimuth Distance (km) Brightness Sun altitude
Exits shadow 03:11:53 65° 135° (SE) 718 3.9 -26.9°
Drops below altitude 10° 03:15:56 10° 127° (SE) 2,053 7.0 -26.1°
Sets 03:18:16 0° 127° (SE) 2,959 8.0 -25.6°
